Regional Weather Roundup
Issued by NWS Albany, NY

Home | Current Version | Previous Version | Graphics & Text | Print | Product List | Glossary Off
Versions: 1 2 3 4 5 6 7 8 9 10 11 12 13 14 15 16 17 18 19 20 21 22 23 24 25 26 27 28 29 30 31 32 33 34 35 36 37 38 39 40 41 42 43 44 45 46 47 48 49 50

000
ASUS41 KALY 241510
RWRALY

NEW YORK STATE HOURLY WEATHER ROUNDUP
NATIONAL WEATHER SERVICE ALBANY NY
1000 AM EST SAT JAN 24 2015

NOTE: "FAIR" INDICATES FEW OR NO CLOUDS BELOW 12,000 FEET WITH NO
SIGNIFICANT WEATHER AND/OR NO OBSTRUCTIONS TO VISIBILITY.

NYZ032-033-038>043-046>054-057>066-NYZ062>081-241600-
EAST


CITY           SKY/WX    TMP DP  RH WIND       PRES   REMARKS
ALBANY         LGT SNOW  27  23  85 N7        29.60F FOG     WCI  19
GLENS FALLS    CLOUDY    25  21  85 CALM      29.61F FOG
POUGHKEEPSIE   LGT SNOW  33  30  88 VRB3      29.56F FOG
NEWBURGH       LGT SNOW  30  30 100 SE7       29.55F WCI  23
MONTGOMERY     LGT SNOW  32  30  92 NE3       29.53F FOG
WHITE PLAINS   LGT RAIN  34  31  88 N7        29.50F FOG     WCI  28
ISLIP          LGT RAIN  34  32  92 NE15      29.48F FOG     WCI  24
NEW YORK CITY  LGT RAIN  34  32  92 NE13      29.52F FOG     WCI  25
CENTRAL PARK   MIX PCPN  34  31  88 NE6       29.53F VSB 1   WCI  29
$$

NYZ005>009-017-018-044>046-055-056-241600-
CENTRAL


CITY           SKY/WX    TMP DP  RH WIND       PRES   REMARKS
FULTON         PTSUNNY   26  20  77 CALM      29.59F
SYRACUSE       CLOUDY    22  20  92 CALM      29.60F
ROME           MOSUNNY   24  20  84 CALM      29.62F
ELMIRA         PTSUNNY   31  28  89 CALM      29.56F FOG
BINGHAMTON     CLOUDY    29  27  92 CALM      29.51F FOG
MONTICELLO     CLOUDY    28  28 100 CALM      29.51F
$$

NYZ026>034-041>043-241600-
NORTH


CITY           SKY/WX    TMP DP  RH WIND       PRES   REMARKS
WATERTOWN      CLOUDY    31  24  75 SW7       29.58F WCI  24
FORT DRUM      NOT AVBL
MASSENA        CLOUDY    30  24  78 SW13      29.58F WCI  20
SARANAC LAKE   MOSUNNY   20  16  84 SW6       29.50F WCI  12
PLATTSBURGH    PTSUNNY   24  17  74 CALM      29.58F
$$

NYZ001>004-010>016-019>021-241600-
WEST


CITY           SKY/WX    TMP DP  RH WIND       PRES   REMARKS
NIAGARA FALLS  CLOUDY    25  21  85 SW12      29.59F FOG     WCI  14
BUFFALO        CLOUDY    25  21  85 SW13      29.60F WCI  14
DUNKIRK        CLOUDY    25  21  85 SW12      29.63F WCI  14
JAMESTOWN      CLOUDY    19  18  93 W8        29.57F WCI   9
WELLSVILLE     PTSUNNY   26  21  81 NW6       29.53F WCI  19
ROCHESTER      CLOUDY    27  21  78 W10       29.60F WCI  17
PENN YAN       MOSUNNY   29  21  72 E3        29.58F
$$

             KEY
       WCI = WIND CHILL INDEX
       VSB = VISIBILITY
       HX  = HEAT INDEX
$$



USA.gov is the U.S. government's official web portal to all federal, state and local government web resources and services.